Volver al catálogo

THORAD DELTA 1 DEB

ActivoLEO
NORAD 8167·DEBRIS·🇺🇸 United States

Lanzado Nov 15, 1974 desde Vandenberg Space Force Base

Loading…

Próximos Pases (próximas 24 horas)

TLE

ActualizadoSource: Space-Track

Época: Sep 14, 2026, 14:14 UTC

1 08167U 74089AH  26257.59325389  .00003541  00000-0  67300-2 0  9997
2 08167 101.3681 127.5140 0131717  65.8234 313.0613 13.35517831439327

Sigue THORAD DELTA 1 DEB en tiempo real con AllMySat

Download on the App Store